• In Hungary
  • List of Countries
  • For 7 days
  • Water Temperature
  • Satellite Maps
  • Weather Map
  • News
  • Weather Widgets
  • user-avatar
    Login

    Hourly Weather Pryyut

    Today, 22 October, Monday

    Time Temperature Precipitation Wind Pressure Humidity
    00:00 +10°C° 0 mm 3 mps 746 mmHg 75%
    01:00 +9°C° 0 mm 3 mps 746 mmHg 78%
    02:00 +8°C° 0 mm 3 mps 746 mmHg 82%
    03:00 +8°C° 0 mm 3 mps 746 mmHg 83%
    04:00 +8°C° 0 mm 3 mps 746 mmHg 83%
    05:00 +7°C° 0 mm 3 mps 746 mmHg 84%
    06:00 +8°C° 0 mm 3 mps 746 mmHg 80%
    07:00 +7°C° 0 mm 4 mps 746 mmHg 76%
    08:00 +8°C° 0 mm 4 mps 747 mmHg 72%
    09:00 +10°C° 0 mm 4 mps 746 mmHg 66%
    10:00 +12°C° 0 mm 4 mps 746 mmHg 60%
    11:00 +13°C° 0 mm 4 mps 746 mmHg 53%
    12:00 +14°C° 0 mm 4 mps 746 mmHg 51%
    13:00 +14°C° 0 mm 4 mps 746 mmHg 49%
    14:00 +16°C° 0 mm 3 mps 746 mmHg 47%
    15:00 +14°C° 0 mm 3 mps 745 mmHg 50%
    16:00 +12°C° 0 mm 3 mps 745 mmHg 52%
    17:00 +12°C° 0 mm 2 mps 745 mmHg 55%
    18:00 +10°C° 0 mm 2 mps 745 mmHg 57%
    19:00 +10°C° 0 mm 2 mps 745 mmHg 58%
    20:00 +9°C° 0 mm 2 mps 745 mmHg 60%
    21:00 +8°C° 0 mm 2 mps 745 mmHg 61%
    22:00 +8°C° 0 mm 2 mps 744 mmHg 62%
    23:00 +7°C° 0 mm 2 mps 744 mmHg 63%

    Tomorrow, 23 October, Tuesday

    Time Temperature Precipitation Wind Pressure Humidity
    00:00 +7°C° 0 mm 2 mps 744 mmHg 63%
    01:00 +7°C° 0 mm 2 mps 744 mmHg 64%
    02:00 +6°C° 0 mm 2 mps 744 mmHg 65%
    03:00 +6°C° 0 mm 2 mps 744 mmHg 65%
    04:00 +5°C° 0 mm 2 mps 743 mmHg 66%
    05:00 +5°C° 0 mm 2 mps 743 mmHg 67%
    06:00 +6°C° 0 mm 2 mps 743 mmHg 65%
    07:00 +5°C° 0 mm 3 mps 743 mmHg 63%
    08:00 +7°C° 0 mm 3 mps 743 mmHg 61%
    09:00 +8°C° 0 mm 3 mps 743 mmHg 57%
    10:00 +10°C° 0 mm 4 mps 742 mmHg 53%
    11:00 +11°C° 0 mm 4 mps 742 mmHg 48%
    12:00 +12°C° 0 mm 5 mps 741 mmHg 47%
    13:00 +12°C° 0 mm 5 mps 741 mmHg 45%
    14:00 +13°C° 0 mm 6 mps 740 mmHg 43%
    15:00 +12°C° 0 mm 5 mps 740 mmHg 48%
    16:00 +11°C° 0 mm 4 mps 739 mmHg 53%
    17:00 +10°C° 0 mm 3 mps 739 mmHg 57%
    18:00 +9°C° 0 mm 3 mps 738 mmHg 61%
    19:00 +9°C° 0 mm 3 mps 738 mmHg 65%
    20:00 +8°C° 0 mm 3 mps 738 mmHg 70%
    21:00 +7°C° 0.2 mm 4 mps 737 mmHg 71%
    22:00 +8°C° 0.2 mm 4 mps 736 mmHg 72%
    23:00 +8°C° 0.2 mm 4 mps 735 mmHg 73%

    Day after tomorrow, 24 October, Wednesday

    Time Temperature Precipitation Wind Pressure Humidity
    00:00 +8°C° 0.6 mm 5 mps 734 mmHg 73%
    01:00 +8°C° 0.6 mm 6 mps 733 mmHg 73%
    02:00 +8°C° 0.6 mm 6 mps 732 mmHg 73%
    03:00 +8°C° 0.2 mm 6 mps 731 mmHg 73%
    04:00 +8°C° 0.2 mm 7 mps 730 mmHg 74%
    05:00 +8°C° 0.2 mm 7 mps 729 mmHg 74%
    06:00 +8°C° 0 mm 7 mps 728 mmHg 71%
    07:00 +8°C° 0 mm 7 mps 727 mmHg 68%
    08:00 +9°C° 0 mm 7 mps 727 mmHg 64%
    09:00 +9°C° 0.3 mm 8 mps 726 mmHg 65%
    10:00 +9°C° 0.3 mm 8 mps 725 mmHg 65%
    11:00 +9°C° 0.3 mm 8 mps 724 mmHg 66%
    12:00 +9°C° 0.9 mm 8 mps 724 mmHg 68%
    13:00 +9°C° 0.9 mm 7 mps 723 mmHg 69%
    14:00 +9°C° 0.9 mm 6 mps 722 mmHg 71%
    15:00 +8°C° 0.7 mm 7 mps 722 mmHg 70%
    16:00 +8°C° 0.7 mm 7 mps 722 mmHg 69%
    17:00 +6°C° 0.7 mm 7 mps 722 mmHg 67%
    18:00 +5°C° 0 mm 7 mps 722 mmHg 68%
    19:00 +4°C° 0 mm 6 mps 722 mmHg 68%
    20:00 +3°C° 0 mm 6 mps 722 mmHg 68%
    21:00 +3°C° 0.1 mm 6 mps 723 mmHg 71%
    22:00 +3°C° 0.1 mm 6 mps 723 mmHg 74%
    23:00 +3°C° 0.1 mm 7 mps 723 mmHg 77%

    25 October, Thursday

    Time Temperature Precipitation Wind Pressure Humidity
    00:00 +3°C° 0.2 mm 7 mps 723 mmHg 76%
    01:00 +4°C° 0.2 mm 7 mps 723 mmHg 76%
    02:00 +4°C° 0.2 mm 8 mps 724 mmHg 75%
    03:00 +4°C° 0.1 mm 7 mps 724 mmHg 74%
    04:00 +4°C° 0.1 mm 7 mps 724 mmHg 74%
    05:00 +4°C° 0.1 mm 7 mps 724 mmHg 73%
    06:00 +4°C° 0 mm 7 mps 725 mmHg 73%
    07:00 +4°C° 0 mm 7 mps 726 mmHg 72%
    08:00 +4°C° 0 mm 8 mps 726 mmHg 71%
    09:00 +5°C° 0.1 mm 8 mps 727 mmHg 69%
    10:00 +5°C° 0.1 mm 8 mps 727 mmHg 67%
    11:00 +6°C° 0.1 mm 8 mps 728 mmHg 65%
    12:00 +6°C° 0.1 mm 9 mps 728 mmHg 63%
    13:00 +6°C° 0.1 mm 9 mps 728 mmHg 62%
    14:00 +6°C° 0.1 mm 9 mps 729 mmHg 60%
    15:00 +5°C° 0 mm 8 mps 729 mmHg 61%
    16:00 +5°C° 0 mm 8 mps 730 mmHg 62%
    17:00 +4°C° 0 mm 7 mps 730 mmHg 64%
    18:00 +4°C° 0 mm 6 mps 730 mmHg 64%
    19:00 +5°C° 0 mm 5 mps 730 mmHg 65%
    20:00 +4°C° 0 mm 4 mps 731 mmHg 66%
    21:00 +4°C° 0.1 mm 4 mps 730 mmHg 68%
    22:00 +4°C° 0.1 mm 4 mps 730 mmHg 70%
    23:00 +4°C° 0.1 mm 4 mps 730 mmHg 71%

    26 October, Friday

    Time Temperature Precipitation Wind Pressure Humidity
    00:00 +4°C° 0.2 mm 4 mps 730 mmHg 74%
    01:00 +3°C° 0.2 mm 3 mps 730 mmHg 77%
    02:00 +4°C° 0.2 mm 2 mps 729 mmHg 80%
    03:00 +3°C° 0.1 mm 3 mps 730 mmHg 81%
    04:00 +4°C° 0.1 mm 3 mps 731 mmHg 81%
    05:00 +4°C° 0.1 mm 4 mps 731 mmHg 81%
    06:00 +4°C° 0 mm 4 mps 732 mmHg 80%
    07:00 +3°C° 0 mm 5 mps 733 mmHg 78%
    08:00 +3°C° 0 mm 5 mps 735 mmHg 77%
    09:00 +5°C° 0 mm 5 mps 735 mmHg 70%
    10:00 +6°C° 0 mm 5 mps 736 mmHg 64%
    11:00 +7°C° 0 mm 5 mps 737 mmHg 57%
    12:00 +7°C° 0 mm 6 mps 737 mmHg 56%
    13:00 +8°C° 0 mm 6 mps 738 mmHg 55%
    14:00 +8°C° 0 mm 6 mps 738 mmHg 54%
    15:00 +8°C° 0 mm 5 mps 738 mmHg 58%
    16:00 +7°C° 0 mm 4 mps 739 mmHg 61%
    17:00 +8°C° 0 mm 3 mps 739 mmHg 65%
    18:00 +8°C° 0 mm 3 mps 740 mmHg 67%
    19:00 +7°C° 0 mm 3 mps 741 mmHg 69%
    20:00 +7°C° 0 mm 3 mps 741 mmHg 71%
    21:00 +5°C° 0 mm 3 mps 742 mmHg 72%
    22:00 +6°C° 0 mm 2 mps 742 mmHg 74%
    23:00 +5°C° 0 mm 2 mps 743 mmHg 76%

    27 October, Saturday

    Time Temperature Precipitation Wind Pressure Humidity
    00:00 +5°C° 0 mm 2 mps 743 mmHg 76%
    01:00 +5°C° 0 mm 2 mps 743 mmHg 77%
    02:00 +4°C° 0 mm 3 mps 743 mmHg 77%
    03:00 +4°C° 0 mm 3 mps 743 mmHg 78%
    04:00 +4°C° 0 mm 3 mps 743 mmHg 78%
    05:00 +3°C° 0 mm 3 mps 743 mmHg 79%
    06:00 +4°C° 0 mm 3 mps 743 mmHg 76%
    07:00 +5°C° 0 mm 4 mps 743 mmHg 72%
    08:00 +6°C° 0 mm 5 mps 743 mmHg 69%
    09:00 +8°C° 0 mm 6 mps 742 mmHg 69%
    10:00 +11°C° 0 mm 7 mps 742 mmHg 68%
    11:00 +14°C° 0 mm 7 mps 742 mmHg 68%
    12:00 +15°C° 0 mm 7 mps 742 mmHg 63%
    13:00 +16°C° 0 mm 7 mps 741 mmHg 58%
    14:00 +17°C° 0 mm 7 mps 741 mmHg 53%
    15:00 +16°C° 0 mm 6 mps 740 mmHg 57%
    16:00 +15°C° 0 mm 6 mps 740 mmHg 61%
    17:00 +14°C° 0 mm 5 mps 740 mmHg 65%
    18:00 +13°C° 0 mm 6 mps 740 mmHg 72%
    19:00 +13°C° 0 mm 6 mps 740 mmHg 78%
    20:00 +11°C° 0 mm 7 mps 740 mmHg 84%
    21:00 +11°C° 0 mm 6 mps 741 mmHg 86%
    22:00 +11°C° 0 mm 6 mps 741 mmHg 88%
    23:00 +11°C° 0 mm 6 mps 741 mmHg 89%

    28 October, Sunday

    Time Temperature Precipitation Wind Pressure Humidity
    00:00 +11°C° 0 mm 6 mps 741 mmHg 89%
    01:00 +11°C° 0 mm 6 mps 741 mmHg 88%
    02:00 +11°C° 0 mm 7 mps 741 mmHg 87%
    03:00 +11°C° 0 mm 7 mps 741 mmHg 87%
    04:00 +11°C° 0 mm 7 mps 741 mmHg 87%
    05:00 +11°C° 0 mm 7 mps 741 mmHg 87%
    06:00 +11°C° 0 mm 7 mps 741 mmHg 85%
    07:00 +12°C° 0 mm 7 mps 741 mmHg 83%
    08:00 +12°C° 0 mm 8 mps 741 mmHg 81%
    09:00 +15°C° 0 mm 8 mps 741 mmHg 74%
    10:00 +16°C° 0 mm 8 mps 741 mmHg 68%
    11:00 +18°C° 0 mm 9 mps 741 mmHg 61%
    12:00 +19°C° 0 mm 9 mps 741 mmHg 60%
    13:00 +20°C° 0 mm 8 mps 741 mmHg 58%
    14:00 +21°C° 0 mm 8 mps 740 mmHg 56%
    15:00 +20°C° 0 mm 7 mps 741 mmHg 63%
    16:00 +17°C° 0 mm 7 mps 741 mmHg 69%
    17:00 +16°C° 0 mm 6 mps 741 mmHg 75%
    18:00 +15°C° 0 mm 6 mps 741 mmHg 79%
    19:00 +15°C° 0 mm 6 mps 741 mmHg 84%
    20:00 +14°C° 0 mm 5 mps 741 mmHg 89%
    21:00 +14°C° 0 mm 5 mps 741 mmHg 90%
    22:00 +14°C° 0 mm 5 mps 742 mmHg 91%
    23:00 +14°C° 0 mm 5 mps 742 mmHg 92%
    Show more